• In Romania
  • List of Countries
  • For 7 days
  • Water Temperature
  • Satellite Maps
  • Weather Map
  • Weather Widgets
  • user-avatar
    Login

    Hourly Weather Shusha

    Today, 19 September, Tuesday

    Time Temperature Precipitation Wind Pressure Humidity
    00:00 +18°C° 0.1 mm 2 mps 663 mmHg 32%
    01:00 +17°C° 0 mm 2 mps 663 mmHg 33%
    02:00 +17°C° 0 mm 2 mps 662 mmHg 34%
    03:00 +18°C° 0 mm 1 mps 662 mmHg 33%
    04:00 +18°C° 0 mm 1 mps 662 mmHg 34%
    05:00 +18°C° 0 mm 1 mps 662 mmHg 34%
    06:00 +16°C° 0 mm 1 mps 662 mmHg 34%
    07:00 +19°C° 0 mm 2 mps 663 mmHg 31%
    08:00 +21°C° 0 mm 2 mps 663 mmHg 28%
    09:00 +25°C° 0 mm 2 mps 664 mmHg 24%
    10:00 +26°C° 0 mm 2 mps 664 mmHg 22%
    11:00 +27°C° 0 mm 2 mps 664 mmHg 21%
    12:00 +28°C° 0 mm 3 mps 664 mmHg 20%
    13:00 +28°C° 0 mm 3 mps 664 mmHg 20%
    14:00 +28°C° 0 mm 3 mps 664 mmHg 20%
    15:00 +29°C° 0 mm 3 mps 664 mmHg 20%
    16:00 +27°C° 0 mm 2 mps 663 mmHg 23%
    17:00 +25°C° 0 mm 2 mps 663 mmHg 27%
    18:00 +23°C° 0 mm 1 mps 662 mmHg 31%
    19:00 +22°C° 0 mm 1 mps 662 mmHg 33%
    20:00 +21°C° 0 mm 1 mps 662 mmHg 35%
    21:00 +20°C° 0 mm 1 mps 662 mmHg 37%
    22:00 +19°C° 0 mm 2 mps 662 mmHg 39%
    23:00 +18°C° 0 mm 2 mps 662 mmHg 40%

    Tomorrow, 20 September, Wednesday

    Time Temperature Precipitation Wind Pressure Humidity
    00:00 +18°C° 0 mm 2 mps 662 mmHg 42%
    01:00 +17°C° 0 mm 2 mps 662 mmHg 43%
    02:00 +17°C° 0 mm 2 mps 662 mmHg 43%
    03:00 +17°C° 0 mm 2 mps 662 mmHg 44%
    04:00 +18°C° 0 mm 1 mps 662 mmHg 44%
    05:00 +16°C° 0 mm 1 mps 662 mmHg 43%
    06:00 +16°C° 0 mm 1 mps 662 mmHg 43%
    07:00 +19°C° 0 mm 1 mps 663 mmHg 40%
    08:00 +21°C° 0 mm 2 mps 663 mmHg 37%
    09:00 +24°C° 0 mm 2 mps 664 mmHg 34%
    10:00 +25°C° 0 mm 2 mps 664 mmHg 32%
    11:00 +26°C° 0 mm 2 mps 664 mmHg 30%
    12:00 +28°C° 0 mm 3 mps 664 mmHg 27%
    13:00 +28°C° 0 mm 3 mps 664 mmHg 27%
    14:00 +28°C° 0 mm 3 mps 663 mmHg 27%
    15:00 +28°C° 0 mm 3 mps 663 mmHg 27%
    16:00 +26°C° 0 mm 2 mps 663 mmHg 32%
    17:00 +25°C° 0 mm 2 mps 662 mmHg 37%
    18:00 +23°C° 0 mm 1 mps 662 mmHg 42%
    19:00 +22°C° 0 mm 1 mps 662 mmHg 45%
    20:00 +21°C° 0 mm 1 mps 662 mmHg 47%
    21:00 +20°C° 0 mm 1 mps 662 mmHg 49%
    22:00 +20°C° 0 mm 1 mps 662 mmHg 49%
    23:00 +20°C° 0 mm 1 mps 662 mmHg 49%

    Day after tomorrow, 21 September, Thursday

    Time Temperature Precipitation Wind Pressure Humidity
    00:00 +19°C° 0 mm 1 mps 662 mmHg 49%
    01:00 +19°C° 0 mm 1 mps 662 mmHg 49%
    02:00 +19°C° 0 mm 1 mps 662 mmHg 49%
    03:00 +18°C° 0 mm 1 mps 661 mmHg 49%
    04:00 +18°C° 0 mm 1 mps 661 mmHg 49%
    05:00 +18°C° 0 mm 1 mps 661 mmHg 49%
    06:00 +18°C° 0 mm 1 mps 661 mmHg 48%
    07:00 +20°C° 0 mm 1 mps 662 mmHg 44%
    08:00 +21°C° 0 mm 2 mps 663 mmHg 39%
    09:00 +24°C° 0 mm 2 mps 663 mmHg 35%
    10:00 +26°C° 0 mm 2 mps 663 mmHg 32%
    11:00 +27°C° 0 mm 2 mps 663 mmHg 28%
    12:00 +28°C° 0 mm 3 mps 663 mmHg 25%
    13:00 +28°C° 0 mm 3 mps 663 mmHg 25%
    14:00 +28°C° 0 mm 3 mps 663 mmHg 25%
    15:00 +29°C° 0 mm 3 mps 662 mmHg 25%
    16:00 +27°C° 0 mm 2 mps 662 mmHg 29%
    17:00 +25°C° 0 mm 2 mps 661 mmHg 32%
    18:00 +23°C° 0 mm 1 mps 661 mmHg 36%
    19:00 +22°C° 0 mm 1 mps 661 mmHg 39%
    20:00 +21°C° 0 mm 1 mps 661 mmHg 41%
    21:00 +20°C° 0 mm 1 mps 661 mmHg 44%
    22:00 +20°C° 0 mm 1 mps 661 mmHg 45%
    23:00 +19°C° 0 mm 1 mps 661 mmHg 47%

    22 September, Friday

    Time Temperature Precipitation Wind Pressure Humidity
    00:00 +19°C° 0 mm 1 mps 661 mmHg 48%
    01:00 +18°C° 0 mm 1 mps 661 mmHg 49%
    02:00 +18°C° 0 mm 1 mps 661 mmHg 50%
    03:00 +18°C° 0 mm 1 mps 661 mmHg 51%
    04:00 +16°C° 0 mm 1 mps 661 mmHg 52%
    05:00 +16°C° 0 mm 1 mps 661 mmHg 52%
    06:00 +16°C° 0 mm 1 mps 661 mmHg 53%
    07:00 +19°C° 0 mm 1 mps 661 mmHg 47%
    08:00 +20°C° 0 mm 2 mps 662 mmHg 41%
    09:00 +23°C° 0 mm 2 mps 662 mmHg 35%
    10:00 +24°C° 0 mm 2 mps 662 mmHg 32%
    11:00 +26°C° 0 mm 3 mps 662 mmHg 30%
    12:00 +27°C° 0 mm 3 mps 662 mmHg 27%
    13:00 +27°C° 0 mm 3 mps 662 mmHg 27%
    14:00 +27°C° 0 mm 3 mps 661 mmHg 27%
    15:00 +27°C° 0 mm 3 mps 661 mmHg 27%
    16:00 +26°C° 0 mm 3 mps 661 mmHg 32%
    17:00 +24°C° 0 mm 2 mps 661 mmHg 36%
    18:00 +22°C° 0 mm 1 mps 660 mmHg 40%
    19:00 +21°C° 0 mm 1 mps 660 mmHg 42%
    20:00 +19°C° 0 mm 2 mps 661 mmHg 45%
    21:00 +18°C° 0 mm 2 mps 661 mmHg 48%
    22:00 +18°C° 0 mm 2 mps 661 mmHg 49%
    23:00 +19°C° 0 mm 1 mps 661 mmHg 50%

    23 September, Saturday

    Time Temperature Precipitation Wind Pressure Humidity
    00:00 +18°C° 0 mm 1 mps 661 mmHg 51%
    01:00 +18°C° 0.1 mm 1 mps 661 mmHg 51%
    02:00 +18°C° 0.1 mm 1 mps 661 mmHg 51%
    03:00 +16°C° 0.1 mm 1 mps 661 mmHg 51%
    04:00 +16°C° 0 mm 1 mps 661 mmHg 51%
    05:00 +16°C° 0 mm 1 mps 662 mmHg 51%
    06:00 +15°C° 0 mm 1 mps 662 mmHg 50%
    07:00 +18°C° 0 mm 1 mps 662 mmHg 44%
    08:00 +20°C° 0 mm 2 mps 663 mmHg 38%
    09:00 +23°C° 0 mm 2 mps 664 mmHg 32%
    10:00 +24°C° 0 mm 2 mps 664 mmHg 30%
    11:00 +25°C° 0 mm 3 mps 664 mmHg 28%
    12:00 +26°C° 0 mm 3 mps 664 mmHg 26%
    13:00 +26°C° 0 mm 3 mps 664 mmHg 27%
    14:00 +26°C° 0 mm 3 mps 664 mmHg 27%
    15:00 +27°C° 0 mm 3 mps 664 mmHg 27%
    16:00 +25°C° 0 mm 3 mps 663 mmHg 31%
    17:00 +23°C° 0 mm 2 mps 663 mmHg 36%
    18:00 +21°C° 0 mm 1 mps 663 mmHg 40%
    19:00 +20°C° 0 mm 1 mps 663 mmHg 43%
    20:00 +20°C° 0 mm 1 mps 663 mmHg 45%
    21:00 +19°C° 0 mm 1 mps 663 mmHg 48%
    22:00 +17°C° 0 mm 2 mps 663 mmHg 50%
    23:00 +17°C° 0 mm 2 mps 663 mmHg 51%

    24 September, Sunday

    Time Temperature Precipitation Wind Pressure Humidity
    00:00 +16°C° 0 mm 2 mps 663 mmHg 53%
    01:00 +16°C° 0 mm 2 mps 663 mmHg 53%
    02:00 +16°C° 0 mm 2 mps 663 mmHg 52%
    03:00 +16°C° 0 mm 1 mps 663 mmHg 52%
    04:00 +15°C° 0 mm 1 mps 663 mmHg 52%
    05:00 +15°C° 0 mm 1 mps 663 mmHg 51%
    06:00 +15°C° 0 mm 1 mps 663 mmHg 51%
    07:00 +17°C° 0 mm 2 mps 664 mmHg 45%
    08:00 +19°C° 0 mm 2 mps 664 mmHg 39%
    09:00 +21°C° 0 mm 2 mps 665 mmHg 33%
    10:00 +24°C° 0 mm 2 mps 665 mmHg 31%
    11:00 +25°C° 0 mm 2 mps 665 mmHg 28%
    12:00 +26°C° 0 mm 3 mps 665 mmHg 25%
    13:00 +26°C° 0 mm 3 mps 665 mmHg 25%
    14:00 +26°C° 0 mm 3 mps 664 mmHg 24%
    15:00 +27°C° 0 mm 3 mps 664 mmHg 24%
    16:00 +25°C° 0 mm 2 mps 664 mmHg 28%
    17:00 +23°C° 0 mm 2 mps 664 mmHg 32%
    18:00 +21°C° 0 mm 1 mps 663 mmHg 36%
    19:00 +20°C° 0 mm 1 mps 664 mmHg 38%
    20:00 +19°C° 0 mm 1 mps 664 mmHg 41%
    21:00 +18°C° 0 mm 2 mps 664 mmHg 43%
    22:00 +17°C° 0 mm 2 mps 664 mmHg 45%
    23:00 +17°C° 0 mm 2 mps 664 mmHg 47%
    Show more